Location: Fontevrault
(47.1823°N, 0.0493°E)
Time: 14:11:13
(UTC+00:00)

FALCON 9 DEB - Pass Details

Date: 16 June 2021
Orbit: 421 x 432 km, 53.0° (Epoch: 04 August)

Event Time Altitude Azimuth Distance (km) Brightness Sun altitude
Rises 22:52:17 0° 259° (W) 2,395 7.0 -17.8°
Reaches altitude 10° 22:54:27 10° 266° (W) 1,527 6.0 -17.9°
Maximum altitude 22:57:45 45° 341° (NNW) 593 4.2 -18.0°
Drops below altitude 10° 23:01:04 10° 56° (NE) 1,525 6.1 -18.2°
Sets 23:03:14 0° 63° (ENE) 2,390 7.1 -18.3°
